Volver al catálogo

KUIPER-00051

ActivoComunicacionesLEO
NORAD 64511·PAYLOAD·🇺🇸 United States

Lanzado Jun 23, 2025 desde Cape Canaveral Space Force Station

Loading…

Próximos Pases (próximas 24 horas)

TLE

ActualizadoSource: CelesTrak SupGP

Época: Sep 15, 2026, 02:16 UTC

1 64511C 25134M   26258.09491898  .00006299  00000+0  82476-3 0  2586
2 64511  51.8991 109.1838 0000868 109.2826  41.5708 14.79916539    12

Sigue KUIPER-00051 en tiempo real con AllMySat

Download on the App Store